Latest Weather Observations for Tindal

IDD60801

Issued at 5:35 pm CST Monday 28 July 2014 (issued every 30 minutes, with the page automatically refreshed every 10 minutes)

About weather observations | Map of weather stations | Latest weather observations for NT | Other Formats
Station Details ID: 014932 Name: TINDAL RAAF Lat: -14.52 Lon: 132.38 Height: 133.6 m
Data from the previous 72 hours. | See also: Recent months at Tindal
Date/Time
CST
Temp
°C
App
Temp
°C
Dew
Point
Rel
Hum
%
Delta-T
°C
Wind Press
QNH
hPa
Press
MSL
hPa
Rain
since 9 am
mm
Dir
 
Spd
km/h
Gust
km/h
Spd
kts
Gust
kts
28/05:30pm 31.1 27.7 9.3 26 12.3 E 17 26 9 14 1013.7 - 0.0
28/05:00pm 31.7 28.8 9.8 26 12.5 E 15 24 8 13 1013.5 - 0.0
28/04:30pm 32.2 28.7 10.3 26 12.6 E 19 26 10 14 1013.5 - 0.0
28/04:00pm 32.0 29.6 10.1 26 12.6 ESE 13 24 7 13 1013.5 - 0.0
28/03:30pm 31.5 28.0 10.8 28 12.0 ESE 20 33 11 18 1013.8 - 0.0
28/03:00pm 31.6 28.1 10.9 28 12.0 E 20 28 11 15 1014.1 1013.7 0.0
28/02:30pm 31.8 28.7 11.6 29 11.9 E 19 30 10 16 1014.6 - 0.0
28/02:00pm 31.7 27.4 12.0 30 11.6 E 26 37 14 20 1015.1 - 0.0
28/01:30pm 31.7 27.8 12.0 30 11.6 E 24 35 13 19 1015.7 - 0.0
28/12:58pm 30.8 26.2 12.2 32 11.0 E 28 46 15 25 1016.4 - 0.0
28/12:30pm 29.9 25.2 11.9 33 10.5 E 28 44 15 24 1016.9 - 0.0
28/12:00pm 29.6 24.4 11.6 33 10.5 E 30 43 16 23 1017.4 1016.9 0.0
28/11:30am 29.6 25.3 12.1 34 10.3 E 26 37 14 20 1017.8 - 0.0
28/11:00am 28.9 26.1 14.3 40 8.8 E 22 32 12 17 1018.3 - 0.0
28/10:30am 27.4 25.2 14.8 46 7.6 ESE 20 28 11 15 1018.5 - 0.0
28/10:00am 26.0 24.3 15.7 53 6.3 E 19 26 10 14 1018.8 - 0.0
28/09:30am 24.5 24.0 17.0 63 4.7 SE 15 20 8 11 1018.9 - 0.0
28/09:00am 22.5 22.5 17.2 72 3.3 ESE 13 20 7 11 1018.8 1018.3 0.0
28/08:30am 21.1 21.1 17.3 79 2.3 SE 13 17 7 9 1018.5 - 0.0
28/08:00am 19.5 20.1 16.7 84 1.7 SE 9 13 5 7 1018.2 - 0.0
28/07:30am 17.8 18.1 16.1 90 1.0 SSE 9 11 5 6 1017.9 - 0.0
28/07:00am 17.9 17.8 16.1 89 1.1 SE 11 11 6 6 1017.5 - 0.0
28/06:30am 18.1 18.0 16.1 88 1.2 SE 11 13 6 7 1017.3 - 0.0
28/06:00am 18.4 18.5 15.6 84 1.7 SE 9 11 5 6 1017.1 1016.6 0.0
28/05:30am 19.3 19.1 15.6 79 2.2 SE 11 11 6 6 1016.7 - 0.0
28/05:00am 20.2 19.6 15.6 75 2.7 E 13 15 7 8 1016.5 - 0.0
28/04:30am 20.6 20.5 14.9 70 3.4 ESE 9 11 5 6 1016.4 - 0.0
28/04:00am 21.2 21.0 14.6 66 3.9 E 9 11 5 6 1016.3 - 0.0
28/03:30am 22.0 21.7 14.4 62 4.5 E 9 13 5 7 1016.4 - 0.0
28/03:00am 22.4 21.7 14.3 60 4.8 E 11 17 6 9 1016.5 1016.0 0.0
28/02:30am 23.0 21.9 14.3 58 5.1 E 13 19 7 10 1016.7 - 0.0
28/02:00am 23.4 21.4 13.8 54 5.6 E 17 20 9 11 1016.8 - 0.0
28/01:30am 23.5 21.9 12.8 51 6.2 E 13 15 7 8 1017.1 - 0.0
28/01:00am 23.7 22.7 12.4 49 6.5 E 9 13 5 7 1017.2 - 0.0
28/12:30am 24.0 22.9 12.0 47 6.9 E 9 13 5 7 1017.3 - 0.0
28/12:00am 24.5 23.0 11.8 45 7.2 E 11 15 6 8 1017.5 1017.0 0.0
 
Date/Time
CST
Temp
°C
App
Temp
°C
Dew
Point
Rel
Hum
%
Delta-T
°C
Wind Press
QNH
hPa
Press
MSL
hPa
Rain
since 9 am
mm
Dir
 
Spd
km/h
Gust
km/h
Spd
kts
Gust
kts
27/11:30pm 25.1 23.1 11.6 42 7.7 E 13 19 7 10 1017.4 - 0.0
27/11:00pm 25.5 23.2 11.7 42 7.9 E 15 20 8 11 1017.4 - 0.0
27/10:30pm 25.5 23.6 11.7 42 7.9 E 13 17 7 9 1017.3 - 0.0
27/10:00pm 24.8 23.0 12.1 45 7.3 E 13 15 7 8 1017.2 - 0.0
27/09:30pm 22.2 21.3 12.5 54 5.5 E 9 11 5 6 1017.1 - 0.0
27/09:00pm 22.1 21.7 12.9 56 5.3 SE 7 9 4 5 1016.8 1016.3 0.0
27/08:30pm 23.7 23.1 12.4 49 6.5 SE 7 9 4 5 1016.6 - 0.0
27/08:00pm 25.5 24.4 12.0 43 7.8 ESE 9 11 5 6 1016.2 - 0.0
27/07:30pm 27.2 25.5 11.2 36 9.2 ESE 11 15 6 8 1015.8 - 0.0
27/07:00pm 28.0 26.0 11.5 35 9.5 E 13 17 7 9 1015.4 - 0.0
27/06:30pm 29.1 27.0 11.2 33 10.3 E 13 17 7 9 1015.0 - 0.0
27/06:00pm 29.4 27.1 11.9 34 10.2 E 15 24 8 13 1014.8 1014.4 0.0
27/05:30pm 30.6 27.4 12.0 32 10.9 ESE 20 28 11 15 1014.6 - 0.0
27/05:00pm 31.4 28.4 12.7 32 11.2 ESE 20 28 11 15 1014.4 - 0.0
27/04:30pm 32.0 27.8 12.3 30 11.7 ESE 26 35 14 19 1014.3 - 0.0
27/04:00pm 30.5 26.5 11.9 31 10.9 ESE 24 32 13 17 1014.3 - 0.0
27/03:30pm 32.2 27.1 11.9 29 12.0 ESE 30 37 16 20 1014.3 - 0.0
27/03:00pm 32.5 28.6 12.2 29 12.1 ESE 24 37 13 20 1014.5 1014.1 0.0
27/02:30pm 30.4 26.6 12.3 33 10.7 E 24 35 13 19 1015.0 - 0.0
27/02:00pm 32.2 28.9 12.9 31 11.6 E 22 32 12 17 1015.6 - 0.0
27/01:30pm 29.6 25.1 12.5 35 10.1 ESE 28 41 15 22 1016.4 - 0.0
27/01:00pm 31.1 26.3 12.9 32 10.9 ESE 30 44 16 24 1017.1 - 0.0
27/12:30pm 30.7 26.7 13.0 33 10.6 ESE 26 37 14 20 1017.7 - 0.0
27/12:00pm 30.2 26.7 13.5 36 10.0 E 24 35 13 19 1018.2 1017.7 0.0
27/11:30am 29.1 26.5 13.7 38 9.2 ESE 20 32 11 17 1018.6 - 0.0
27/11:00am 28.1 25.8 14.7 44 8.1 ESE 20 30 11 16 1019.0 - 0.0
27/10:30am 27.1 24.5 14.8 47 7.5 SE 22 30 12 16 1019.2 - 0.0
27/10:00am 26.0 24.4 16.0 54 6.2 ESE 19 26 10 14 1019.4 - 0.0
27/09:30am 24.1 22.1 15.6 59 5.2 ESE 20 28 11 15 1019.3 - 0.0
27/09:00am 22.8 22.5 16.4 67 3.9 SE 13 17 7 9 1019.2 1018.7 0.0
27/08:30am 20.8 21.6 16.4 76 2.7 ESE 7 11 4 6 1018.9 - 0.0
27/08:00am 18.2 18.8 15.8 86 1.4 SSE 7 9 4 5 1018.5 - 0.0
27/07:30am 15.8 15.8 14.2 90 0.9 SSE 7 7 4 4 1018.2 - 0.0
27/07:00am 15.1 14.6 13.8 92 0.7 SSE 9 9 5 5 1018.0 - 0.0
27/06:30am 15.8 15.6 13.5 86 1.3 SSE 7 7 4 4 1017.8 - 0.0
27/06:00am 17.2 17.3 14.5 84 1.6 S 7 7 4 4 1017.7 1017.2 0.0
27/05:30am 18.0 18.5 15.1 83 1.7 SSE 6 6 3 3 1017.6 - 0.0
27/05:00am 17.7 17.6 15.0 84 1.6 SSE 9 11 5 6 1017.5 - 0.0
27/04:30am 18.1 17.6 14.8 81 1.9 SSE 11 11 6 6 1017.3 - 0.0
27/04:00am 18.8 18.4 15.3 80 2.1 SSE 11 11 6 6 1017.5 - 0.0
27/03:30am 19.1 19.2 15.4 79 2.2 SSE 9 11 5 6 1017.6 - 0.0
27/03:00am 19.5 19.1 15.2 76 2.5 SSE 11 11 6 6 1017.7 1017.2 0.0
27/02:30am 21.3 21.5 15.8 71 3.3 ESE 9 11 5 6 1017.9 - 0.0
27/02:00am 22.3 22.2 15.9 67 3.9 E 11 15 6 8 1018.1 - 0.0
27/01:30am 22.2 22.6 15.3 65 4.1 E 7 11 4 6 1018.5 - 0.0
27/01:00am 23.3 22.7 15.6 62 4.7 E 13 19 7 10 1018.6 - 0.0
27/12:30am 23.4 23.1 15.5 61 4.8 E 11 17 6 9 1018.8 - 0.0
27/12:00am 23.7 22.9 15.2 59 5.1 E 13 17 7 9 1018.9 1018.4 0.0
 
Date/Time
CST
Temp
°C
App
Temp
°C
Dew
Point
Rel
Hum
%
Delta-T
°C
Wind Press
QNH
hPa
Press
MSL
hPa
Rain
since 9 am
mm
Dir
 
Spd
km/h
Gust
km/h
Spd
kts
Gust
kts
26/11:30pm 23.7 23.3 15.2 59 5.1 E 11 15 6 8 1018.9 - 0.0
26/11:00pm 23.4 23.2 14.7 58 5.2 ESE 9 13 5 7 1018.9 - 0.0
26/10:30pm 24.5 23.4 14.3 53 6.1 E 13 15 7 8 1018.7 - 0.0
26/10:00pm 24.6 23.3 13.8 51 6.4 E 13 19 7 10 1018.6 - 0.0
26/09:30pm 22.4 20.7 12.6 54 5.6 ESE 13 17 7 9 1018.5 - 0.0
26/09:00pm 22.9 21.5 12.2 51 6.1 ESE 11 13 6 7 1018.2 1017.7 0.0
26/08:30pm 23.8 22.4 12.1 48 6.7 ESE 11 11 6 6 1017.9 - 0.0
26/08:00pm 23.7 22.6 12.0 48 6.7 SE 9 11 5 6 1017.4 - 0.0
26/07:30pm 25.6 24.3 11.4 41 8.1 SE 9 11 5 6 1017.1 - 0.0
26/07:00pm 27.5 25.3 10.7 35 9.5 ESE 13 19 7 10 1016.9 - 0.0
26/06:30pm 28.9 26.4 11.0 33 10.3 ESE 15 24 8 13 1016.5 - 0.0
26/06:00pm 29.8 26.3 10.9 31 10.9 E 20 28 11 15 1016.0 1015.6 0.0
26/05:30pm 30.6 27.6 10.5 29 11.5 ESE 17 24 9 13 1015.7 - 0.0
26/05:00pm 31.0 26.6 10.4 28 11.8 E 24 32 13 17 1015.4 - 0.0
26/04:30pm 31.4 27.9 10.2 27 12.2 ESE 19 28 10 15 1015.2 - 0.0
26/04:00pm 31.6 27.4 9.8 26 12.4 E 22 30 12 16 1015.2 - 0.0
26/03:30pm 31.7 27.3 10.4 27 12.3 ESE 24 39 13 21 1015.1 - 0.0
26/03:00pm 31.7 27.7 10.4 27 12.3 ESE 22 35 12 19 1015.1 1014.7 0.0
26/02:30pm 31.4 27.7 10.2 27 12.2 E 20 30 11 16 1015.2 - 0.0
26/02:00pm 31.7 26.5 10.4 27 12.3 E 28 39 15 21 1015.5 - 0.0
26/01:30pm 30.9 26.3 12.3 32 11.0 E 28 43 15 23 1016.0 - 0.0
26/01:00pm 30.2 25.9 12.1 32 10.6 E 26 32 14 17 1016.8 - 0.0
26/12:30pm 29.8 26.1 12.7 35 10.1 E 24 35 13 19 1017.4 - 0.0
26/12:00pm 29.4 24.4 12.3 34 10.0 ESE 30 39 16 21 1018.0 1017.5 0.0
26/11:30am 28.8 25.7 13.5 39 9.1 ESE 22 30 12 16 1018.5 - 0.0
26/11:00am 27.7 25.4 14.7 45 7.9 ESE 20 28 11 15 1019.0 - 0.0
26/10:30am 26.5 24.4 15.2 49 6.9 ESE 20 33 11 18 1019.3 - 0.0
26/10:00am 25.3 24.2 15.3 54 6.1 E 15 20 8 11 1019.6 - 0.0
26/09:30am 23.7 23.1 15.7 61 4.9 E 13 19 7 10 1019.6 - 0.0
26/09:00am 21.7 21.2 16.0 70 3.4 E 13 17 7 9 1019.6 1019.2 0.0
26/08:30am 19.9 19.4 14.9 73 2.9 ESE 11 15 6 8 1019.4 - 0.0
26/08:00am 18.2 18.2 14.1 77 2.4 SE 7 11 4 6 1019.3 - 0.0
26/07:30am 15.8 15.2 12.4 80 1.9 SE 7 7 4 4 1019.0 - 0.0
26/07:00am 15.1 14.4 11.9 81 1.7 ESE 7 9 4 5 1018.9 - 0.0
26/06:30am 15.4 14.3 12.0 80 1.9 SSE 9 9 5 5 1018.4 - 0.0
26/06:00am 15.0 13.4 11.6 80 1.8 SE 11 13 6 7 1018.1 1017.6 0.0
26/05:30am 15.8 14.6 11.6 76 2.3 SSE 9 11 5 6 1017.9 - 0.0
26/05:00am 16.3 14.4 11.7 74 2.5 SE 13 13 7 7 1017.6 - 0.0
26/04:30am 16.6 14.2 11.5 72 2.8 SSE 15 17 8 9 1017.4 - 0.0
26/04:00am 16.9 15.6 11.2 69 3.1 ESE 9 9 5 5 1017.2 - 0.0
26/03:30am 16.8 15.0 10.9 68 3.2 SE 11 13 6 7 1017.2 - 0.0
26/03:00am 18.3 16.6 11.1 63 3.9 SE 11 15 6 8 1017.4 1016.9 0.0
26/02:30am 18.6 17.4 10.4 59 4.4 SE 7 11 4 6 1017.5 - 0.0
26/02:00am 21.1 19.6 10.6 51 5.8 ENE 9 13 5 7 1017.5 - 0.0
26/01:30am 22.2 20.4 10.7 48 6.4 ENE 11 13 6 7 1017.6 - 0.0
26/01:00am 22.5 20.2 10.6 47 6.6 E 13 17 7 9 1017.9 - 0.0
26/12:30am 23.3 20.5 10.0 43 7.3 E 15 20 8 11 1017.9 - 0.0
26/12:00am 23.6 20.4 9.9 42 7.5 E 17 20 9 11 1017.9 1017.4 0.0
 
Date/Time
CST
Temp
°C
App
Temp
°C
Dew
Point
Rel
Hum
%
Delta-T
°C
Wind Press
QNH
hPa
Press
MSL
hPa
Rain
since 9 am
mm
Dir
 
Spd
km/h
Gust
km/h
Spd
kts
Gust
kts
25/11:30pm 20.3 18.0 10.4 53 5.4 E 13 15 7 8 1018.0 - 0.0
25/11:00pm 18.1 16.8 10.0 59 4.3 SSE 7 9 4 5 1017.7 - 0.0
25/10:30pm 18.3 16.6 9.9 58 4.5 SSE 9 11 5 6 1017.7 - 0.0
25/10:00pm 19.7 17.6 9.9 53 5.3 SSE 11 11 6 6 1017.4 - 0.0
25/09:30pm 20.1 18.4 9.9 52 5.5 ESE 9 9 5 5 1017.3 - 0.0
25/09:00pm 20.4 18.6 9.6 50 5.8 ESE 9 11 5 6 1017.2 1016.7 0.0
25/08:30pm 21.4 19.3 9.6 47 6.4 ESE 11 11 6 6 1017.1 - 0.0
25/08:00pm 22.7 20.4 9.1 42 7.3 ESE 11 13 6 7 1016.5 - 0.0
25/07:30pm 25.0 22.9 8.1 34 9.1 ESE 9 11 5 6 1015.8 - 0.0
25/07:00pm 26.0 23.6 8.5 33 9.5 ESE 11 11 6 6 1015.4 - 0.0
25/06:30pm 28.1 25.1 7.9 28 11.0 ESE 13 17 7 9 1015.0 - 0.0
25/06:00pm 29.8 26.9 8.2 26 11.9 E 13 19 7 10 1014.6 1014.2 0.0

Other Formats:

Comma delimited format used in spreadsheet applications
http://www.bom.gov.au/fwo/IDD60801/IDD60801.94131.axf

JavaScript Object Notation format (JSON) in row-major order
http://www.bom.gov.au/fwo/IDD60801/IDD60801.94131.json